Time[GMT],salinity[psu](1m),sigma_t[kg/m^3](1m),conductivity[msiemens/cm](1m),temperature[C](1m)
2014-06-01 02:00,31.793,24.873,32.493,7.16
2014-06-01 02:30,31.825,24.867,32.718,7.39
2014-06-01 03:00,31.820,24.844,32.833,7.53
2014-06-01 03:30,31.831,24.859,32.800,7.48
2014-06-01 04:00,31.832,24.890,32.614,7.26
2014-06-01 04:30,31.823,24.903,32.478,7.11
2014-06-01 05:00,31.828,24.883,32.636,7.29
2014-06-01 05:30,31.826,24.870,32.702,7.37
2014-06-01 06:00,31.831,24.864,32.766,7.44
2014-06-01 06:30,31.828,24.857,32.798,7.48
2014-06-01 07:00,31.829,24.867,32.739,7.41
2014-06-01 07:30,31.827,24.919,32.397,7.01
2014-06-01 08:00,31.830,24.946,32.238,6.82
2014-06-01 08:30,31.834,24.944,32.277,6.86
2014-06-01 09:00,31.852,24.953,32.326,6.90
2014-06-01 09:30,31.868,24.962,32.367,6.93
2014-06-01 10:00,31.873,24.975,32.315,6.86
2014-06-01 10:30,31.890,24.988,32.330,6.86
2014-06-01 11:00,31.899,24.987,32.387,6.92
2014-06-01 11:30,31.918,24.982,32.540,7.08
2014-06-01 12:00,31.935,24.973,32.692,7.24
2014-06-01 12:30,31.937,24.958,32.796,7.36
2014-06-01 13:00,31.965,24.959,32.959,7.52
2014-06-01 13:30,31.928,24.911,33.045,7.66
2014-06-01 14:00,31.973,24.924,33.215,7.81
2014-06-01 14:30,31.957,24.914,33.192,7.80
2014-06-01 15:00,31.971,24.899,33.360,7.98
2014-06-01 15:30,32.011,25.001,32.968,7.48
2014-06-01 16:00,31.933,24.928,32.964,7.56
2014-06-01 16:30,31.914,24.703,34.186,9.00
2014-06-01 17:00,31.854,24.591,34.492,9.42
2014-06-01 17:30,32.461,25.029,35.277,9.64
2014-06-01 18:00,31.881,24.802,33.429,8.16
2014-06-01 18:30,31.940,24.703,34.324,9.13
2014-06-01 19:00,32.067,24.824,34.325,8.99
2014-06-01 19:30,31.967,24.821,33.795,8.49
2014-06-01 20:00,32.010,24.844,33.906,8.57
2014-06-01 20:30,32.120,24.901,34.176,8.76
2014-06-01 21:00,32.024,24.866,33.850,8.49
2014-06-01 21:30,31.947,24.821,33.690,8.39
2014-06-01 22:00,31.922,24.808,33.623,8.34
2014-06-01 22:30,31.970,24.978,32.870,7.41
2014-06-01 23:00,31.931,24.881,33.245,7.89
2014-06-01 23:30,31.904,24.717,34.055,8.86
2014-06-02 00:00,31.875,24.703,33.975,8.80
2014-06-02 00:30,31.831,24.670,33.924,8.79
2014-06-02 01:00,31.819,24.729,33.517,8.33
2014-06-02 01:30,31.814,24.714,33.581,8.41
2014-06-02 02:00,31.818,24.699,33.688,8.53
2014-06-02 02:30,31.825,24.713,33.643,8.47
2014-06-02 03:00,31.832,24.742,33.512,8.31
2014-06-02 03:30,31.838,24.744,33.535,8.33
2014-06-02 04:00,31.845,24.715,33.739,8.56
2014-06-02 04:30,31.854,24.753,33.567,8.35
2014-06-02 05:00,31.875,24.780,33.527,8.28
2014-06-02 05:30,31.907,24.834,33.385,8.08
2014-06-02 06:00,31.920,24.854,33.337,8.01
2014-06-02 06:30,31.926,24.863,33.317,7.98
2014-06-02 07:00,31.940,24.879,33.305,7.95
2014-06-02 07:30,31.947,24.891,33.268,7.90
2014-06-02 08:00,32.006,24.970,33.126,7.67
2014-06-02 08:30,31.992,24.963,33.087,7.64
2014-06-02 09:00,31.982,24.960,33.052,7.61
2014-06-02 09:30,32.010,25.012,32.890,7.39
2014-06-02 10:00,31.988,24.975,32.989,7.53
2014-06-02 10:30,32.001,25.007,32.873,7.38
2014-06-02 11:00,31.971,24.948,33.059,7.63
2014-06-02 11:30,31.932,24.859,33.374,8.04
2014-06-02 12:00,31.868,24.795,33.400,8.14
2014-06-02 12:30,31.882,24.809,33.396,8.12
2014-06-02 13:00,31.836,24.767,33.387,8.16
2014-06-02 13:30,31.794,24.711,33.484,8.32
2014-06-02 14:00,31.822,24.734,33.502,8.31
2014-06-02 14:30,31.850,24.752,33.555,8.34
2014-06-02 15:00,31.866,24.769,33.544,8.31
2014-06-02 15:30,31.918,24.824,33.507,8.21
2014-06-02 16:00,31.947,24.894,33.251,7.88
2014-06-02 16:30,31.976,24.929,33.210,7.80
2014-06-02 17:00,31.986,24.950,33.133,7.70
2014-06-02 17:30,32.017,24.979,33.136,7.67
2014-06-02 18:00,32.035,24.953,33.394,7.95
2014-06-02 18:30,32.048,24.949,33.492,8.05
2014-06-02 19:00,32.076,24.968,33.536,8.07
2014-06-02 19:30,32.083,24.961,33.620,8.16
2014-06-02 20:00,32.078,24.954,33.633,8.18
2014-06-02 20:30,32.070,24.971,33.487,8.02
2014-06-02 21:00,31.913,24.849,33.331,8.01
2014-06-02 21:30,31.888,24.771,33.651,8.41
2014-06-02 22:00,31.812,24.720,33.527,8.35
2014-06-02 22:30,31.775,24.676,33.587,8.46
2014-06-02 23:00,31.774,24.691,33.491,8.35
2014-06-02 23:30,31.761,24.679,33.487,8.36
2014-06-03 00:00,31.759,24.680,33.468,8.34
2014-06-03 00:30,31.764,24.689,33.447,8.31
2014-06-03 01:00,31.765,24.689,33.448,8.31
2014-06-03 01:30,31.753,24.676,33.463,8.34
2014-06-03 02:00,31.753,24.676,33.463,8.34
2014-06-03 02:30,31.758,24.675,33.493,8.37
2014-06-03 03:00,31.765,24.675,33.534,8.41
2014-06-03 03:30,31.773,24.672,33.593,8.47
2014-06-03 04:00,31.775,24.692,33.492,8.35
2014-06-03 04:30,31.789,24.715,33.437,8.27
2014-06-03 05:00,31.785,24.711,33.433,8.27
2014-06-03 05:30,31.788,24.717,33.419,8.25
2014-06-03 06:00,31.780,24.707,33.428,8.27
2014-06-03 06:30,31.776,24.697,33.467,8.32
2014-06-03 07:00,31.785,24.705,33.467,8.31
2014-06-03 07:30,31.762,24.686,33.454,8.32
2014-06-03 08:00,31.745,24.687,33.352,8.22
2014-06-03 08:30,31.737,24.699,33.233,8.09
2014-06-03 09:00,31.718,24.673,33.284,8.17
2014-06-03 09:30,31.727,24.680,33.292,8.17
2014-06-03 10:00,31.730,24.675,33.338,8.22
2014-06-03 10:30,31.740,24.683,33.347,8.22
2014-06-03 11:00,31.728,24.662,33.405,8.30
2014-06-03 11:30,31.732,24.683,33.306,8.18
2014-06-03 12:00,31.742,24.687,33.332,8.20
2014-06-03 12:30,31.747,24.674,33.440,8.32
2014-06-03 13:00,31.773,24.697,33.447,8.30
2014-06-03 13:30,31.750,24.650,33.597,8.50
2014-06-03 14:00,31.764,24.652,33.662,8.56
2014-06-03 14:30,31.765,24.635,33.766,8.68
2014-06-03 15:00,31.782,24.627,33.903,8.82
2014-06-03 15:30,31.803,24.634,33.975,8.88
2014-06-03 16:00,31.782,24.572,34.214,9.18
2014-06-03 16:30,31.801,24.535,34.518,9.51
2014-06-03 17:00,31.802,24.626,34.017,8.93
2014-06-03 17:30,31.779,24.609,33.986,8.92
2014-06-03 18:00,31.885,24.671,34.210,9.06
2014-06-03 18:30,31.885,24.540,34.922,9.88
2014-06-03 19:00,31.872,24.508,35.032,10.02
2014-06-03 19:30,31.857,24.632,34.278,9.17
2014-06-03 20:00,31.726,24.374,34.991,10.14
2014-06-03 20:30,31.791,24.538,34.448,9.44
2014-06-03 21:00,31.784,24.431,34.988,10.07
2014-06-03 21:30,31.862,24.622,34.361,9.26
2014-06-03 22:00,31.584,24.359,34.340,9.55
2014-06-03 22:30,31.796,24.625,33.985,8.90
2014-06-03 23:00,31.900,24.663,34.337,9.19
2014-06-03 23:30,31.514,24.165,35.006,10.40
2014-06-04 00:00,31.614,24.203,35.315,10.64
2014-06-04 00:30,31.645,24.388,34.504,9.67
2014-06-04 01:00,31.659,24.460,34.181,9.28
2014-06-04 01:30,31.561,24.262,34.741,10.04
2014-06-04 02:00,31.560,24.292,34.576,9.85
2014-06-04 02:30,31.568,24.267,34.748,10.04
2014-06-04 03:00,31.656,24.354,34.740,9.93
2014-06-04 03:30,31.613,24.317,34.714,9.95
2014-06-04 04:00,31.593,24.303,34.686,9.94
2014-06-04 04:30,31.654,24.339,34.807,10.01
2014-06-04 05:00,31.654,24.384,34.564,9.73
2014-06-04 05:30,31.728,24.444,34.629,9.72
2014-06-04 06:00,31.722,24.474,34.432,9.50
2014-06-04 06:30,31.765,24.479,34.630,9.68
2014-06-04 07:00,31.796,24.546,34.426,9.41
2014-06-04 07:30,31.787,24.552,34.348,9.33
2014-06-04 08:00,31.806,24.582,34.280,9.23
2014-06-04 08:30,31.821,24.622,34.139,9.05
2014-06-04 09:00,31.841,24.686,33.891,8.74
2014-06-04 09:30,31.839,24.688,33.863,8.71
2014-06-04 10:00,31.823,24.694,33.744,8.59
2014-06-04 10:30,31.875,24.798,33.424,8.16
2014-06-04 11:00,31.799,24.687,33.652,8.51
2014-06-04 11:30,31.799,24.725,33.429,8.25
2014-06-04 12:00,31.703,24.654,33.312,8.22
2014-06-04 12:30,31.619,24.593,33.207,8.19
2014-06-04 13:00,31.596,24.550,33.330,8.36
2014-06-04 13:30,31.612,24.542,33.465,8.50
2014-06-04 14:00,31.577,24.489,33.577,8.67
2014-06-04 14:30,31.564,24.473,33.599,8.71
2014-06-04 15:00,31.552,24.486,33.459,8.56
2014-06-04 15:30,31.566,24.529,33.285,8.34
2014-06-04 16:00,31.533,24.468,33.458,8.58
2014-06-04 16:30,31.596,24.451,33.896,9.02
2014-06-04 17:00,31.643,24.510,33.812,8.87
2014-06-04 17:30,31.610,24.509,33.643,8.71
2014-06-04 18:00,31.610,24.509,33.643,8.71
2014-06-04 18:30,31.609,24.467,33.874,8.98
2014-06-04 19:00,31.606,24.508,33.631,8.70
2014-06-04 19:30,31.676,24.552,33.758,8.77
2014-06-04 20:00,31.652,24.561,33.572,8.58
2014-06-04 20:30,31.622,24.506,33.723,8.79
2014-06-04 21:00,31.574,24.458,33.737,8.86
2014-06-04 21:30,31.820,24.643,34.017,8.91
2014-06-04 22:00,31.699,24.553,33.875,8.88
2014-06-04 22:30,31.763,24.600,33.954,8.90
2014-06-04 23:00,31.587,24.578,33.117,8.12
2014-06-04 23:30,31.612,24.563,33.346,8.36
2014-06-05 00:00,31.600,24.565,33.266,8.28
2014-06-05 00:30,31.598,24.572,33.213,8.22
2014-06-05 01:00,31.715,24.651,33.401,8.31
2014-06-05 01:30,31.875,24.716,33.897,8.71
2014-06-05 02:00,31.901,24.759,33.793,8.56
2014-06-05 02:30,31.876,24.747,33.726,8.51
2014-06-05 03:00,31.893,24.822,33.381,8.09
2014-06-05 03:30,31.915,24.835,33.427,8.12
2014-06-05 04:00,31.893,24.788,33.578,8.32
2014-06-05 04:30,31.875,24.765,33.622,8.39
2014-06-05 05:00,31.859,24.704,33.882,8.71
2014-06-05 05:30,31.868,24.726,33.804,8.61
2014-06-05 06:00,31.903,24.785,33.657,8.40
2014-06-05 06:30,31.878,24.766,33.624,8.39
2014-06-05 07:00,31.871,24.772,33.558,8.32
2014-06-05 07:30,31.876,24.774,33.571,8.33
2014-06-05 08:00,31.882,24.771,33.620,8.38
2014-06-05 08:30,31.881,24.773,33.601,8.36
2014-06-05 09:00,31.894,24.782,33.622,8.37
2014-06-05 09:30,31.892,24.742,33.845,8.63
2014-06-05 10:00,31.905,24.749,33.874,8.65
2014-06-05 10:30,31.909,24.758,33.844,8.61
2014-06-05 11:00,31.902,24.718,34.036,8.84
2014-06-05 11:30,31.883,24.701,34.026,8.85
2014-06-05 12:00,31.901,24.720,34.017,8.82
2014-06-05 12:30,31.879,24.714,33.936,8.75
2014-06-05 13:00,31.899,24.734,33.929,8.72
2014-06-05 13:30,31.920,24.761,33.889,8.65
2014-06-05 14:00,31.920,24.802,33.647,8.37
2014-06-05 14:30,31.936,24.819,33.636,8.34
2014-06-05 15:00,31.914,24.821,33.504,8.21
2014-06-05 15:30,31.731,24.763,32.818,7.61
2014-06-05 16:00,31.695,24.753,32.665,7.47
2014-06-05 16:30,31.755,24.814,32.636,7.37
2014-06-05 17:00,31.734,24.791,32.659,7.42
2014-06-05 17:30,31.696,24.750,32.692,7.50
2014-06-05 18:00,31.702,24.748,32.740,7.55
2014-06-05 18:30,31.749,24.783,32.792,7.56
2014-06-05 19:00,31.740,24.772,32.809,7.59
2014-06-05 19:30,31.780,24.797,32.889,7.64
2014-06-05 20:00,31.775,24.809,32.782,7.52
2014-06-05 20:30,31.808,24.856,32.685,7.37
2014-06-05 21:00,31.806,24.880,32.522,7.18
2014-06-05 21:30,31.797,24.886,32.428,7.08
2014-06-05 22:00,31.686,24.804,32.292,7.04
2014-06-05 22:30,31.640,24.790,32.108,6.87
2014-06-05 23:00,31.626,24.806,31.922,6.67
2014-06-05 23:30,31.616,24.811,31.821,6.56
2014-06-06 00:00,31.571,24.775,31.787,6.57
2014-06-06 00:30,31.546,24.757,31.755,6.55
2014-06-06 01:00,31.597,24.801,31.776,6.52
2014-06-06 01:30,31.575,24.775,31.811,6.59
2014-06-06 02:00,31.593,24.790,31.821,6.58
2014-06-06 02:30,31.601,24.802,31.795,6.54
2014-06-06 03:00,31.635,24.835,31.782,6.49
2014-06-06 03:30,31.623,24.825,31.777,6.50
2014-06-06 04:00,31.595,24.792,31.824,6.58
2014-06-06 04:30,31.567,24.751,31.920,6.73
2014-06-06 05:00,31.550,24.719,32.030,6.88
2014-06-06 05:30,31.555,24.724,32.025,6.87
2014-06-06 06:00,31.540,24.710,32.027,6.88
2014-06-06 06:30,31.541,24.704,32.067,6.93
2014-06-06 07:00,31.573,24.744,32.004,6.82
2014-06-06 07:30,31.563,24.730,32.033,6.87
2014-06-06 08:00,31.555,24.716,32.073,6.92
2014-06-06 08:30,31.578,24.740,32.058,6.88
2014-06-06 09:00,31.592,24.755,32.043,6.85
2014-06-06 09:30,31.597,24.760,32.038,6.84
2014-06-06 10:00,31.596,24.760,32.039,6.84
2014-06-06 10:30,31.590,24.754,32.044,6.85
2014-06-06 11:00,31.583,24.744,32.061,6.88
2014-06-06 11:30,31.596,24.760,32.034,6.83
2014-06-06 12:00,31.628,24.799,31.973,6.72
2014-06-06 12:30,31.602,24.764,32.046,6.84
2014-06-06 13:00,31.603,24.765,32.047,6.84
2014-06-06 13:30,31.605,24.764,32.067,6.86
2014-06-06 14:00,31.598,24.753,32.096,6.90
2014-06-06 14:30,31.572,24.722,32.143,6.99
2014-06-06 15:00,31.574,24.729,32.103,6.94
2014-06-06 15:30,31.552,24.701,32.152,7.02
2014-06-06 16:00,31.544,24.683,32.221,7.11
2014-06-06 16:30,31.543,24.673,32.279,7.18
2014-06-06 17:00,31.543,24.672,32.287,7.19
2014-06-06 17:30,31.556,24.682,32.299,7.19
2014-06-06 18:00,31.553,24.683,32.271,7.16
2014-06-06 18:30,31.548,24.677,32.283,7.18
2014-06-06 19:00,31.545,24.653,32.416,7.34
2014-06-06 19:30,31.548,24.650,32.452,7.38
2014-06-06 20:00,31.544,24.647,32.449,7.38
2014-06-06 20:30,31.551,24.666,32.371,7.28
2014-06-06 21:00,31.551,24.639,32.540,7.48
2014-06-06 21:30,31.555,24.642,32.544,7.48
2014-06-06 22:00,31.564,24.650,32.543,7.47
2014-06-06 22:30,31.580,24.694,32.364,7.24
2014-06-06 23:00,31.552,24.653,32.456,7.38
2014-06-06 23:30,31.555,24.638,32.569,7.51
2014-06-07 00:00,31.551,24.632,32.582,7.53
2014-06-07 00:30,31.549,24.645,32.496,7.43
2014-06-07 01:00,31.533,24.634,32.464,7.41
2014-06-07 01:30,31.525,24.622,32.490,7.45
2014-06-07 02:00,31.528,24.618,32.535,7.50
2014-06-07 02:30,31.523,24.606,32.581,7.56
2014-06-07 03:00,31.514,24.606,32.531,7.51
2014-06-07 03:30,31.509,24.604,32.518,7.50
2014-06-07 04:00,31.506,24.593,32.566,7.56
2014-06-07 04:30,31.507,24.585,32.617,7.62
2014-06-07 05:00,31.516,24.588,32.651,7.65
2014-06-07 05:30,31.532,24.600,32.675,7.66
2014-06-07 06:00,31.539,24.605,32.681,7.66
2014-06-07 06:30,31.552,24.617,32.685,7.65
2014-06-07 07:00,31.569,24.634,32.675,7.62
2014-06-07 07:30,31.566,24.631,32.672,7.62
2014-06-07 08:00,31.574,24.639,32.671,7.61
2014-06-07 08:30,31.586,24.650,32.674,7.60
2014-06-07 09:00,31.590,24.651,32.686,7.61
2014-06-07 09:30,31.604,24.661,32.708,7.62
2014-06-07 10:00,31.605,24.661,32.717,7.63
2014-06-07 10:30,31.615,24.669,32.727,7.63
2014-06-07 11:00,31.595,24.660,32.666,7.58
2014-06-07 11:30,31.614,24.676,32.675,7.57
2014-06-07 12:00,31.620,24.675,32.714,7.61
2014-06-07 12:30,31.614,24.669,32.717,7.62
2014-06-07 13:00,31.608,24.666,32.703,7.61
2014-06-07 13:30,31.630,24.675,32.775,7.67
2014-06-07 14:00,31.613,24.637,32.912,7.85
2014-06-07 14:30,31.577,24.577,33.065,8.07
2014-06-07 15:00,31.555,24.548,33.112,8.15
2014-06-07 15:30,31.545,24.500,33.342,8.43
2014-06-07 16:00,31.590,24.508,33.538,8.61
2014-06-07 16:30,31.579,24.530,33.348,8.40
2014-06-07 17:00,31.544,24.444,33.657,8.80
2014-06-07 17:30,31.535,24.412,33.785,8.96
2014-06-07 18:00,31.507,24.335,34.067,9.32
2014-06-07 18:30,31.524,24.320,34.238,9.50
2014-06-07 19:00,31.565,24.333,34.382,9.62
2014-06-07 19:30,31.533,24.297,34.411,9.69
2014-06-07 20:00,31.520,24.290,34.381,9.67
2014-06-07 20:30,31.544,24.299,34.456,9.73
2014-06-07 21:00,31.568,24.327,34.428,9.67
2014-06-07 21:30,31.541,24.333,34.255,9.50
2014-06-07 22:00,31.525,24.312,34.282,9.55
2014-06-07 22:30,31.549,24.325,34.340,9.59
2014-06-07 23:00,31.543,24.315,34.360,9.62
2014-06-07 23:30,31.544,24.326,34.310,9.56
2014-06-08 00:00,31.526,24.321,34.240,9.50
2014-06-08 00:30,31.543,24.366,34.085,9.30
2014-06-08 01:00,31.538,24.382,33.968,9.17
2014-06-08 01:30,31.522,24.371,33.944,9.16
2014-06-08 02:00,31.520,24.399,33.779,8.97
2014-06-08 02:30,31.509,24.403,33.700,8.89
2014-06-08 03:00,31.518,24.402,33.752,8.94
2014-06-08 03:30,31.502,24.406,33.642,8.83
2014-06-08 04:00,31.504,24.417,33.593,8.77
2014-06-08 04:30,31.502,24.423,33.548,8.72
2014-06-08 05:00,31.499,24.433,33.477,8.64
2014-06-08 05:30,31.501,24.431,33.496,8.66
2014-06-08 06:00,31.513,24.442,33.499,8.65
2014-06-08 06:30,31.524,24.461,33.450,8.58
2014-06-08 07:00,31.508,24.444,33.460,8.61
2014-06-08 07:30,31.480,24.438,33.339,8.50
2014-06-08 08:00,31.500,24.463,33.307,8.44
2014-06-08 08:30,31.507,24.466,33.331,8.46
2014-06-08 09:00,31.513,24.480,33.277,8.39
2014-06-08 09:30,31.504,24.469,33.294,8.42
2014-06-08 10:00,31.509,24.470,33.316,8.44
2014-06-08 10:30,31.500,24.475,33.239,8.36
2014-06-08 11:00,31.478,24.453,33.244,8.39
2014-06-08 11:30,31.463,24.424,33.332,8.51
2014-06-08 12:00,31.475,24.408,33.488,8.68
2014-06-08 12:30,31.451,24.346,33.713,8.97
2014-06-08 13:00,31.470,24.351,33.782,9.03
2014-06-08 13:30,31.452,24.334,33.782,9.05
2014-06-08 14:00,31.438,24.236,34.249,9.61
2014-06-08 14:30,31.540,24.372,34.039,9.25
2014-06-08 15:00,31.431,24.223,34.276,9.65
2014-06-08 15:30,31.460,24.233,34.373,9.73
2014-06-08 16:00,31.497,24.274,34.350,9.66
2014-06-08 16:30,31.432,24.219,34.303,9.68
2014-06-08 17:00,31.323,24.038,34.703,10.27
2014-06-08 17:30,31.501,24.479,33.214,8.33
2014-06-08 18:00,31.467,24.215,34.510,9.88
2014-06-08 18:30,31.472,24.274,34.213,9.53
2014-06-08 19:00,31.451,24.171,34.658,10.07
2014-06-08 19:30,31.547,24.117,35.412,10.83
2014-06-08 20:00,31.600,24.224,35.135,10.45
2014-06-08 20:30,31.483,24.028,35.548,11.06
2014-06-08 21:00,31.333,23.999,34.954,10.55
2014-06-08 21:30,31.500,24.033,35.609,11.11
2014-06-08 22:00,31.474,24.049,35.400,10.90
2014-06-08 22:30,31.447,24.063,35.199,10.70
2014-06-08 23:00,31.461,24.117,34.987,10.44
2014-06-08 23:30,31.465,24.154,34.818,10.24
2014-06-09 00:00,31.469,24.221,34.486,9.85
2014-06-09 00:30,31.467,24.211,34.527,9.90
2014-06-09 01:00,31.472,24.199,34.618,10.00
2014-06-09 01:30,31.464,24.222,34.455,9.82
2014-06-09 02:00,31.478,24.236,34.451,9.80
2014-06-09 02:30,31.449,24.196,34.518,9.91
2014-06-09 03:00,31.465,24.264,34.232,9.56
2014-06-09 03:30,31.466,24.339,33.830,9.09
2014-06-09 04:00,31.468,24.345,33.806,9.06
2014-06-09 04:30,31.485,24.380,33.703,8.92
2014-06-09 05:00,31.541,24.474,33.466,8.58
2014-06-09 05:30,31.499,24.423,33.528,8.70
2014-06-09 06:00,31.504,24.408,33.644,8.83
2014-06-09 06:30,31.511,24.403,33.711,8.90
2014-06-09 07:00,31.493,24.374,33.779,9.00
2014-06-09 07:30,31.492,24.354,33.881,9.12
2014-06-09 08:00,31.493,24.341,33.959,9.21
2014-06-09 08:30,31.483,24.310,34.078,9.36
2014-06-09 09:00,31.478,24.305,34.082,9.37
2014-06-09 09:30,31.477,24.290,34.158,9.46
2014-06-09 10:00,31.476,24.289,34.157,9.46
2014-06-09 10:30,31.471,24.277,34.195,9.51
2014-06-09 11:00,31.460,24.254,34.262,9.60
2014-06-09 11:30,31.460,24.260,34.227,9.56
2014-06-09 12:00,31.482,24.279,34.240,9.55
2014-06-09 12:30,31.481,24.274,34.265,9.58
2014-06-09 13:00,31.489,24.280,34.273,9.58
2014-06-09 13:30,31.466,24.248,34.328,9.67
2014-06-09 14:00,31.464,24.244,34.334,9.68
2014-06-09 14:30,31.452,24.243,34.280,9.63
2014-06-09 15:00,31.469,24.259,34.279,9.61
2014-06-09 15:30,31.480,24.241,34.436,9.78
2014-06-09 16:00,31.521,24.287,34.399,9.69
2014-06-09 16:30,31.452,24.204,34.486,9.87
2014-06-09 17:00,31.523,24.253,34.591,9.91
2014-06-09 17:30,31.523,24.237,34.677,10.01
2014-06-09 18:00,31.548,24.284,34.555,9.84
2014-06-09 18:30,31.593,24.383,34.254,9.44
2014-06-09 19:00,31.574,24.377,34.193,9.39
2014-06-09 19:30,31.537,24.306,34.380,9.65
2014-06-09 20:00,31.541,24.308,34.393,9.66
2014-06-09 20:30,31.547,24.301,34.459,9.73
2014-06-09 21:00,31.532,24.276,34.513,9.81
2014-06-09 21:30,31.515,24.248,34.574,9.90
2014-06-09 22:00,31.545,24.296,34.474,9.75
2014-06-09 22:30,31.525,24.276,34.481,9.78
2014-06-09 23:00,31.515,24.270,34.462,9.77
2014-06-09 23:30,31.494,24.235,34.536,9.88
2014-06-10 00:00,31.510,24.255,34.518,9.84
2014-06-10 00:30,31.510,24.251,34.535,9.86
2014-06-10 01:00,31.492,24.216,34.629,9.99
2014-06-10 01:30,31.476,24.192,34.674,10.06
2014-06-10 02:00,31.502,24.229,34.613,9.96
2014-06-10 02:30,31.512,24.235,34.632,9.97
2014-06-10 03:00,31.554,24.277,34.621,9.91
2014-06-10 03:30,31.491,24.197,34.723,10.10
2014-06-10 04:00,31.431,24.114,34.854,10.32
2014-06-10 04:30,31.428,24.071,35.058,10.56
2014-06-10 05:00,31.414,24.065,35.018,10.53
2014-06-10 05:30,31.408,24.051,35.064,10.59
2014-06-10 06:00,31.408,24.044,35.099,10.63
2014-06-10 06:30,31.410,24.057,35.040,10.56
2014-06-10 07:00,31.414,24.073,34.984,10.49
2014-06-10 07:30,31.411,24.095,34.851,10.34
2014-06-10 08:00,31.413,24.075,34.965,10.47
2014-06-10 08:30,31.420,24.060,35.076,10.59
2014-06-10 09:00,31.429,24.081,35.016,10.51
2014-06-10 09:30,31.521,24.207,34.822,10.18
2014-06-10 10:00,31.491,24.199,34.715,10.09
2014-06-10 10:30,31.558,24.278,34.643,9.93
2014-06-10 11:00,31.596,24.368,34.352,9.55
2014-06-10 11:30,31.727,24.523,34.195,9.22
2014-06-10 12:00,31.693,24.508,34.093,9.14
2014-06-10 12:30,31.690,24.489,34.185,9.25
2014-06-10 13:00,31.686,24.475,34.241,9.32
2014-06-10 13:30,31.683,24.482,34.187,9.26
2014-06-10 14:00,31.684,24.481,34.196,9.27
2014-06-10 14:30,31.617,24.377,34.416,9.60
2014-06-10 15:00,31.556,24.249,34.779,10.09
2014-06-10 15:30,31.551,24.306,34.454,9.72
2014-06-10 16:00,31.561,24.260,34.749,10.05
2014-06-10 16:30,31.469,24.169,34.762,10.17
2014-06-10 17:00,31.391,24.066,34.900,10.42
2014-06-10 17:30,31.437,24.117,34.868,10.33
2014-06-10 18:00,31.432,24.084,35.010,10.50
2014-06-10 18:30,31.419,24.059,35.075,10.59
2014-06-10 19:00,31.394,24.038,35.059,10.60
2014-06-10 19:30,31.431,24.086,35.001,10.49
2014-06-10 20:00,31.433,24.079,35.046,10.54
2014-06-10 20:30,31.430,24.068,35.086,10.59
2014-06-10 21:00,31.433,24.094,34.968,10.45
2014-06-10 21:30,31.448,24.120,34.905,10.36
2014-06-10 22:00,31.463,24.142,34.868,10.30
2014-06-10 22:30,31.446,24.115,34.920,10.38
2014-06-10 23:00,31.461,24.141,34.866,10.30
2014-06-10 23:30,31.473,24.168,34.783,10.19
2014-06-11 00:00,31.484,24.177,34.794,10.19
2014-06-11 00:30,31.500,24.204,34.732,10.10
2014-06-11 01:00,31.515,24.242,34.609,9.94
2014-06-11 01:30,31.527,24.268,34.534,9.84
2014-06-11 02:00,31.512,24.233,34.640,9.98
2014-06-11 02:30,31.520,24.249,34.596,9.92
2014-06-11 03:00,31.523,24.260,34.556,9.87
2014-06-11 03:30,31.552,24.331,34.326,9.57
2014-06-11 04:00,31.581,24.377,34.225,9.42
2014-06-11 04:30,31.600,24.397,34.218,9.39
2014-06-11 05:00,31.587,24.380,34.240,9.43
2014-06-11 05:30,31.593,24.394,34.194,9.37
2014-06-11 06:00,31.615,24.422,34.155,9.30
2014-06-11 06:30,31.610,24.418,34.150,9.30
2014-06-11 07:00,31.604,24.405,34.196,9.36
2014-06-11 07:30,31.601,24.388,34.271,9.45
2014-06-11 08:00,31.599,24.385,34.277,9.46
2014-06-11 08:30,31.611,24.407,34.220,9.38
2014-06-11 09:00,31.630,24.456,34.049,9.16
2014-06-11 09:30,31.610,24.433,34.073,9.21
2014-06-11 10:00,31.619,24.402,34.288,9.45
2014-06-11 10:30,31.625,24.410,34.277,9.43
2014-06-11 11:00,31.619,24.393,34.340,9.51
2014-06-11 11:30,31.562,24.357,34.232,9.45
2014-06-11 12:00,31.625,24.441,34.104,9.23
2014-06-11 12:30,31.646,24.461,34.108,9.21
2014-06-11 13:00,31.720,24.526,34.136,9.16
2014-06-11 13:30,31.519,24.313,34.251,9.52
2014-06-11 14:00,31.597,24.211,35.184,10.51
2014-06-11 14:30,31.521,24.033,35.709,11.20
2014-06-11 15:00,31.598,24.239,35.046,10.35
2014-06-11 15:30,31.621,24.228,35.217,10.52
2014-06-11 16:00,31.591,24.184,35.291,10.64
2014-06-11 16:30,31.976,24.644,34.837,9.68
2014-06-11 17:00,31.515,24.183,34.920,10.30
2014-06-11 17:30,31.603,24.380,34.324,9.51
2014-06-11 18:00,31.729,24.532,34.154,9.17
2014-06-11 18:30,31.654,24.429,34.322,9.45
2014-06-11 19:00,31.738,24.450,34.647,9.73
2014-06-11 19:30,31.714,24.431,34.623,9.73
2014-06-11 20:00,31.669,24.233,35.431,10.71
2014-06-11 20:30,31.805,24.356,35.480,10.61
2014-06-11 21:00,31.613,24.219,35.227,10.54
2014-06-11 21:30,31.664,24.250,35.321,10.59
2014-06-11 22:00,31.660,24.223,35.439,10.73
2014-06-11 22:30,31.665,24.298,35.078,10.31
2014-06-11 23:00,31.662,24.321,34.945,10.16
2014-06-11 23:30,31.684,24.351,34.897,10.08
2014-06-12 00:00,31.747,24.461,34.639,9.71
2014-06-12 00:30,31.743,24.422,34.826,9.93
2014-06-12 01:00,31.625,24.436,34.130,9.26
2014-06-12 01:30,31.759,24.557,34.174,9.16
2014-06-12 02:00,31.689,24.454,34.374,9.47
2014-06-12 02:30,31.719,24.504,34.256,9.30
2014-06-12 03:00,31.661,24.467,34.157,9.25
2014-06-12 03:30,31.689,24.497,34.132,9.19
2014-06-12 04:00,31.706,24.532,34.028,9.05
2014-06-12 04:30,31.692,24.501,34.126,9.18
2014-06-12 05:00,31.677,24.471,34.215,9.30
2014-06-12 05:30,31.667,24.468,34.180,9.27
2014-06-12 06:00,31.671,24.555,33.710,8.72
2014-06-12 06:30,31.738,24.686,33.320,8.19
2014-06-12 07:00,31.678,24.582,33.597,8.58
2014-06-12 07:30,31.614,24.450,33.999,9.12
2014-06-12 08:00,31.643,24.475,34.010,9.10